Simultaneous Nadir Overpasses (SNOs) Predictions

Prediction of SNOs between GOES-15 and METOP-B Satellite Orbit:

Table of predicted SNOs for the next 14.0 days since TLE Epoch: 11/21/2025
Index Date Time (GOES-15) GOES-15 Lat,Lon METOP-B Lat,Lon Distance(km) Time Diff (sec)
1 11/22/2025 04:53:33 0.69, 61.61 0.57, 62.10 56.08 80
2 11/23/2025 17:10:02 -0.66, 61.69 -1.61, 57.47 480.59 80
3 11/24/2025 16:52:07 -0.69, 61.68 -0.54, 62.45 87.31 80
4 11/26/2025 05:08:29 0.66, 61.57 1.47, 57.83 425.66 80
5 11/27/2025 04:50:35 0.69, 61.56 0.40, 62.81 142.70 80
6 11/28/2025 17:07:03 -0.65, 61.63 -1.43, 58.18 394.07 80
7 11/29/2025 16:49:09 -0.68, 61.63 -0.36, 63.15 173.53 80
8 12/01/2025 05:05:30 0.64, 61.53 1.33, 58.54 340.87 80
9 12/02/2025 04:47:36 0.67, 61.52 0.25, 63.52 226.99 80
10 12/03/2025 17:04:05 -0.63, 61.60 -1.23, 58.88 310.60 80
11 12/04/2025 16:46:10 -0.65, 61.61 -0.14, 63.85 256.18 80
